Mattoon, IL

7:35 PM CDT on June 28, 2017 (GMT -0500)
Coles County Memorial

Weather History for KMTO - December, 2012

Change the Weather History Date:

Sunday, December 2, 2012

  Actual Average Record
Temperature  
Mean Temperature 61 °F 36 °F  
Max Temperature 66 °F 43 °F 66 °F (1950)
Min Temperature 55 °F 29 °F 7 °F (1985)
Degree Days  
Heating Degree Days 4 29  
Month to date heating degree days 17 58  
Since 1 July heating degree days 1182 1117  
Cooling Degree Days 0 0  
Month to date cooling degree days 0 0  
Year to date cooling degree days 1382 1057  
Growing Degree Days 10 (Base 50)    
Moisture  
Dew Point 55 °F    
Average Humidity 81    
Maximum Humidity 100    
Minimum Humidity 62    
Precipitation  
Precipitation 0.03 in 0.09 in 2.60 in (1967)
Month to date precipitation 0.03 0.18  
Year to date precipitation 30.67 35.46  
Sea Level Pressure  
Sea Level Pressure 30.02 in    
Wind  
Wind Speed 9 mph (SSW)    
Max Wind Speed 18 mph    
Max Gust Speed 26 mph    
Visibility 8 miles    
Events Fog , Rain    
T = Trace of Precipitation, MM = Missing Value Source: NWS Daily Summary

Daily Weather History Graph

Daily Weather History Graph

Search for Another Location

Airport or City:

Trip Planner

Search our weather history database for the weather conditions in past years. The results will help you decide how hot, cold, wet, or windy it might be!

Date:

Astronomy

Dec. 02, 2012 Rise Set
Actual Time 6:55 AM CST 4:29 PM CST
Civil Twilight 6:25 AM CST 4:59 PM CST
Nautical Twilight 5:52 AM CST 5:32 PM CST
Astronomical Twilight 5:20 AM CST 6:05 PM CST
Moon 8:16 PM CST (12/2) 9:45 AM CST (12/2)
Length of Visible Light 10h 33m
Length of Day
9h 33m
Waning Gibbous, 85% of the Moon is Illuminated
Dec 2
Waning Gibbous
Dec 6
Last Quarter
Dec 13
New
Dec 19
First Quarter
Dec 28
Full

Hourly Weather History & Observations

Time (CST) Temp. Dew Point Humidity Pressure Visibility Wind Dir Wind Speed Gust Speed Precip Events Conditions
12:53 AM 57.9 °F 48.0 °F 70% 29.96 in 10.0 mi South 11.5 mph 23.0 mph N/A   Overcast
1:53 AM 55.9 °F 52.0 °F 87% 29.96 in 10.0 mi South 16.1 mph 23.0 mph 0.02 in Rain Light Rain
2:53 AM 55.9 °F 52.0 °F 87% 29.97 in 9.0 mi South 11.5 mph - 0.00 in Rain Light Rain
3:53 AM 57.0 °F 52.0 °F 83% 29.96 in 10.0 mi SSW 12.7 mph 18.4 mph 0.01 in   Overcast
4:53 AM 57.0 °F 52.0 °F 83% 29.96 in 10.0 mi SSW 10.4 mph 18.4 mph N/A   Mostly Cloudy
5:53 AM 57.0 °F 52.0 °F 83% 29.97 in 10.0 mi South 8.1 mph - N/A   Mostly Cloudy
6:53 AM 57.0 °F 52.0 °F 83% 29.99 in 10.0 mi SSW 11.5 mph - N/A   Overcast
7:31 AM 57.2 °F 51.8 °F 82% 30.00 in 10.0 mi SSW 11.5 mph - N/A   Overcast
7:53 AM 57.9 °F 52.0 °F 81% 30.01 in 10.0 mi SSW 11.5 mph - N/A   Overcast
8:00 AM 57.2 °F 51.8 °F 82% 30.01 in 10.0 mi SSW 10.4 mph 18.4 mph N/A   Overcast
8:11 AM 57.2 °F 51.8 °F 82% 30.01 in 10.0 mi SSW 11.5 mph - N/A   Overcast
8:19 AM 57.2 °F 53.6 °F 88% 30.02 in 10.0 mi SSW 11.5 mph 18.4 mph N/A   Overcast
8:53 AM 59.0 °F 53.1 °F 81% 30.02 in 10.0 mi SSW 9.2 mph 19.6 mph N/A   Overcast
9:53 AM 61.0 °F 55.0 °F 81% 30.02 in 10.0 mi SSW 10.4 mph 20.7 mph N/A   Partly Cloudy
10:43 AM 62.6 °F 55.4 °F 77% 30.03 in 10.0 mi WSW 12.7 mph 19.6 mph N/A   Mostly Cloudy
10:53 AM 62.1 °F 55.9 °F 80% 30.02 in 10.0 mi SSW 9.2 mph 17.3 mph N/A   Mostly Cloudy
11:53 AM 63.0 °F 55.9 °F 78% 30.01 in 10.0 mi SW 8.1 mph 16.1 mph N/A   Overcast
12:28 PM 64.4 °F 57.2 °F 77% 30.00 in 10.0 mi SSW 9.2 mph - N/A   Scattered Clouds
12:39 PM 64.4 °F 57.2 °F 77% 30.00 in 10.0 mi SSW 11.5 mph 17.3 mph N/A   Mostly Cloudy
12:53 PM 64.0 °F 57.0 °F 78% 30.00 in 10.0 mi SW 8.1 mph - N/A   Overcast
1:40 PM 66.2 °F 55.4 °F 68% 30.00 in 10.0 mi WSW 12.7 mph 18.4 mph N/A   Scattered Clouds
1:53 PM 64.9 °F 55.9 °F 73% 30.00 in 10.0 mi SW 6.9 mph - N/A   Mostly Cloudy
2:45 PM 64.4 °F 57.2 °F 77% 30.01 in 10.0 mi SW 8.1 mph 17.3 mph N/A   Mostly Cloudy
2:53 PM 64.9 °F 57.0 °F 75% 30.01 in 10.0 mi SSW 9.2 mph - N/A   Mostly Cloudy
3:17 PM 64.4 °F 57.2 °F 77% 30.01 in 10.0 mi SSW 4.6 mph - N/A   Partly Cloudy
3:53 PM 63.0 °F 55.9 °F 78% 30.01 in 8.0 mi SSW 6.9 mph - N/A   Mostly Cloudy
4:53 PM 60.1 °F 57.0 °F 90% 30.02 in 10.0 mi South 8.1 mph - N/A   Clear
5:53 PM 59.0 °F 57.0 °F 93% 30.03 in 8.0 mi South 6.9 mph - N/A   Clear
6:53 PM 59.0 °F 57.0 °F 93% 30.05 in 5.0 mi South 5.8 mph - N/A   Scattered Clouds
7:24 PM 59.0 °F 57.2 °F 94% 30.06 in 5.0 mi South 6.9 mph - N/A   Mostly Cloudy
7:53 PM 60.1 °F 57.9 °F 93% 30.06 in 5.0 mi South 8.1 mph - N/A   Overcast
8:53 PM 59.0 °F 57.9 °F 96% 30.06 in 6.0 mi SSE 5.8 mph - N/A   Overcast
9:22 PM 59.0 °F 57.2 °F 94% 30.06 in 5.0 mi South 8.1 mph - N/A   Overcast
9:42 PM 57.2 °F 57.2 °F 100% 30.06 in 4.0 mi South 8.1 mph - N/A   Overcast
9:53 PM 57.9 °F 57.9 °F 100% 30.06 in 4.0 mi South 6.9 mph - N/A   Overcast
10:41 PM 57.2 °F 57.2 °F 100% 30.06 in 2.5 mi South 6.9 mph - N/A   Overcast
10:53 PM 57.9 °F 57.9 °F 100% 30.06 in 0.8 mi South 9.2 mph - N/A   Overcast
11:02 PM 57.2 °F 57.2 °F 100% 30.06 in 0.2 mi South 9.2 mph - N/A Fog Fog
11:53 PM 57.0 °F 57.0 °F 100% 30.05 in 0.2 mi South 6.9 mph - N/A Fog Fog